Location: Peterborough
(44.3091°N, 78.3197°W)
Time: 05:55:27
(UTC-04:00)

Vanguard 2 - Pass Details

Date: 24 March 2023
Orbit: 552 x 2926 km, 32.9° (Epoch: 04 June)

Event Time Altitude Azimuth Distance (km) Brightness Sun altitude
Rises 12:59:45 0° 271° (W) 5,387 11.8 47.0°
Reaches altitude 10° 13:05:16 10° 255° (WSW) 3,862 11.3 47.1°
Maximum altitude 13:10:50 17° 220° (SW) 2,773 11.1 47.2°
Drops below altitude 10° 13:15:08 10° 181° (S) 2,831 11.4 47.2°
Sets 13:18:19 0° 161° (SSE) 3,451 11.5 47.2°
